Location: Clarion
(42.7316°N, 93.7330°W)
Time: 22:57:02
(UTC+00:00)

Daily predictions for brighter satellites

Satellite Brightness Start Highest point End
(mag) Time Altitude Azimuth Time Altitude Azimuth Time Altitude Azimuth
ATLAS CENTAUR R/B 1.3 12:04:08 10° NW 12:08:09 70° WSW 12:12:26 10° SSE
Cosmos 1689 Rocket 2.0 12:05:37 10° SSE 12:08:26 81° ENE 12:11:16 10° N
Lacrosse 5 3.9 12:06:44 10° NNW 12:10:25 20° NNE 12:14:05 10° ENE
Cosmos 1709 Rocket 4.0 12:04:21 10° NNW 12:10:40 66° W 12:16:57 10° S
X-37B 0.8 12:08:32 14° WNW 12:11:07 62° N 12:14:16 10° E
Cosmos 2333 Rocket 4.1 12:08:38 10° N 12:13:42 31° NE 12:18:45 10° ESE
Cosmos 1743 Rocket 3.9 12:10:43 10° NNW 12:14:57 43° W 12:19:11 10° SSW
Cosmos 1805 Rocket 3.6 12:11:38 10° N 12:16:07 83° W 12:20:34 10° S
CZ-4B R/B 3.5 12:13:50 10° N 12:17:57 43° WNW 12:22:09 10° SW
CENTAUR R/B 4.4 12:11:04 10° NNW 12:18:33 41° NE 12:26:46 10° ESE
ALOS 4.1 12:18:11 10° NW 12:19:53 12° WNW 12:21:35 10° W
SMAP 4.0 12:17:56 10° NNE 12:22:31 54° E 12:27:04 10° S
ISS -2.4 12:20:29 10° W 12:23:23 27° NNW 12:26:20 10° NE
COSMOS 2487 4.3 12:22:41 10° S 12:25:49 35° ESE 12:28:58 10° NE
MOS 1 Rocket 4.2 12:25:10 10° SW 12:28:31 22° W 12:31:56 10° NW
Cosmos 2360 Rocket 2.4 12:23:40 10° NNW 12:29:23 83° ENE 12:35:04 10° SSE
USA 215 3.8 12:24:18 10° NE 12:30:49 64° SE 12:37:18 10° SW
Cosmos 2344 3.6 12:24:49 10° SW 12:32:17 67° NW 12:40:09 10° NNE
